STARLINK-36528, 67458

Orbit data source: Space-Track

STARLINK-36528, 67458 is a payload satellite owned by SpaceX/Seattle (US) in LEO that was launched on Wed, 14 Jan 2026 UTC via an FALCON 9 launch vehicle from the Air Force Eastern Test Range (AFETR). Payload-class satellites include a variety of spacecraft equipped with specific instruments for various scientific and technological missions. These include communications satellites like Starlink; space stations such as the ISS; scientific satellites like the Hubble; Earth observation satellites from companies like Planet Labs, Umbra, and HawkEye 360; GPS; miniature CubeSats for education and research; and military/defense satellites.

Loading next visibility...
Identifier
67458, 2026-008P
Orbit
LEO
Country
Flag of USUS
Related business
Manufacturer
SpaceX/Seattle
Mission
Operational spacecraft
Bus & Motor
STARLINK V2MO, Unknown motor
Mass
575 kg wet, ~530 kg dry
Launch date (UTC)
2026-01-14 (2 months ago)
Launch vehicle
FALCON 9
Launch site
Air Force Eastern Test Range (AFETR)
Object type
Payload
Rocket body
Debris
Shape & HBR
Unknown shape, 17.7 m
Radar Cross Section
RCS unknown

Expand to show TLE details & history
Last TLE update: 22 hours ago

TLE from 22 hours ago
0 STARLINK-36528
1 67458U 26008P   26062.52350621  .00043465  00000-0  15774-2 0  9994
2 67458  42.9985 239.6477 0003476 296.7996  63.2500 15.27623786  8635
Epoch: 2026-03-03T12:33Z
TLE epoch observation values (Epoch: 2026-03-03T12:33:50.936Z)
Latitude
-0.00002°
Longitude
-110.11589°
Altitude
481.621 km
Speed
7.627 km/s
True Right ascension
15h 58m 35s
True Declination
0° 00' 00"
Sunlit
Object was in daylight at epoch
Visualization orbit readout
Latitude
Unknown
Longitude
Unknown
Altitude
Unknown
Speed
Unknown
Apparent Right ascension
Unknown
Apparent Declination
Unknown
Sunlit
N/A
Visualization observer readout
Local Sidereal Time
14:13:58
Azimuth
Unknown
Elevation
Unknown
Doppler factor
Unknown
Orbital elements
Apogee altitude
487.249 km
Perigee altitude
482.478 km
Semi-major axis
6,863 km
Eccentricity
0.00035
Inclination
42.9985°
RAAN
239.6477°
Arg. of periapsis
296.7996°
True anomaly
63.28558°
Mean anomaly
63.25°
Eccentric anomaly
63.26779°
Mean motion
3.81744 °/min
Orbital period
94.3 mins
BSTAR
0.0015774
Loading maneuver chart data...
Computing Atmospheric mass density...
Loading historical data...
Loading historical data...
Loading historical data...
Loading historical data...
Loading historical data...
Loading historical data...
Loading historical data...

Documentation

Showing up to 5 results
|